2024-169A (61189 NORAD) Tracking and Keplerian Element Data

This shows tracking and keplerian element data for the satellite.

Feedback or suggestion? Click here.




ElementValue
Catalog61189
Name2024-169A
Epoch Orbit341
Epoch Day286.83733447
Epoch Year2024
RAAN12
Inclination97.5973
Eccentricity0.0009527
Argument of Perigee196.8696
Mean Anonmoly163.2217
Mean Motion15.08757227
Decay Rate0.0001484
L11 61189U 24169A 24286.83733447 .00014840 00000+0 94677-3 0 9990
L22 61189 97.5973 12.0000 0009527 196.8696 163.2217 15.08757227 3412



Live tracking and technical data element details for 2024-169A (NORAD 61189). 2024-169A can be tracked NOW for your location showing map with azimuth and elevation plus other details from your city location.







IsCatalogInMostPopularTable: catalog: 61189, numindb: 24
Update: records affected: 1



GetName: 61189 2024-169A

Hit Count: updated at: Fri, 06 Dec 2024 12:05:37 GMT